Location: Unspecified
(56.5167°N, 0.0000°E)
Time: 15:20:49
(UTC+02:00)

Okean 3 - Visible Passes

Search period start: 04 October 2022 00:00
Search period end: 14 October 2022 00:00
Orbit: 574 x 597 km, 82.5° (Epoch: 04 October)

Date Brightness Start Highest point End Pass type
(mag) Time Alt. Az. Time Alt. Az. Time Alt. Az.
04 Oct 6.3 07:18:05 10° SE 07:21:32 24° E 07:25:00 10° NNE visible
04 Oct 7.0 20:28:41 10° NW 20:31:02 15° W 20:33:21 10° WSW visible
05 Oct 5.7 07:24:28 10° SSE 07:28:16 31° E 07:32:05 10° NNE visible
05 Oct 7.4 20:36:29 10° WNW 20:37:40 11° WNW 20:38:50 10° W visible
06 Oct 5.1 07:31:00 10° SSE 07:35:01 41° E 07:39:05 10° NNE visible
08 Oct 7.0 06:10:35 10° ESE 06:12:13 12° E 06:13:52 10° NE visible
09 Oct 6.7 06:16:17 10° ESE 06:18:51 16° E 06:21:26 10° NE visible
10 Oct 6.3 06:22:21 10° SE 06:25:31 20° E 06:28:41 10° NE visible
11 Oct 5.9 06:28:38 10° SE 06:32:12 26° E 06:35:47 10° NNE visible
12 Oct 5.3 06:35:02 10° SSE 06:38:54 34° E 06:42:49 10° NNE visible
13 Oct 4.7 06:41:33 10° SSE 06:45:39 45° E 06:49:45 10° NNE visible
